When you browse on this site, cookies collect data to enhance your experience and personalize the content and advertising you see.
Visit our Privacy Policy to learn more. By continuing to use the site, you agree to this use of cookies and data.
  • In United Kingdom
  • List of Countries
  • For 7 days
  • Water Temperature
  • Weather Map
  • Weather Widgets
  • user-avatar
    Login

    Hourly Weather Prutz

    Today, 17 September, Tuesday

    Time Temperature Precipitation Wind Pressure Humidity
    00:00 +11°C° 0 mm 1 mps 636 mmHg 89%
    01:00 +12°C° 0 mm 1 mps 636 mmHg 89%
    02:00 +12°C° 0 mm 1 mps 636 mmHg 89%
    03:00 +11°C° 0 mm 1 mps 635 mmHg 89%
    04:00 +11°C° 0 mm 1 mps 635 mmHg 89%
    05:00 +12°C° 0 mm 1 mps 635 mmHg 88%
    06:00 +12°C° 0 mm 1 mps 635 mmHg 88%
    07:00 +14°C° 0 mm 1 mps 636 mmHg 91%
    08:00 +15°C° 0.1 mm 1 mps 636 mmHg 81%
    09:00 +18°C° 0.1 mm 1 mps 637 mmHg 70%
    10:00 +20°C° 0.1 mm 1 mps 637 mmHg 60%
    11:00 +19°C° 0.2 mm 2 mps 637 mmHg 59%
    12:00 +19°C° 0.2 mm 2 mps 637 mmHg 59%
    13:00 +19°C° 0.2 mm 2 mps 637 mmHg 58%
    14:00 +19°C° 0.1 mm 2 mps 637 mmHg 59%
    15:00 +19°C° 0.1 mm 2 mps 637 mmHg 60%
    16:00 +19°C° 0.1 mm 2 mps 636 mmHg 60%
    17:00 +16°C° 0.1 mm 2 mps 636 mmHg 70%
    18:00 +14°C° 0.1 mm 2 mps 635 mmHg 79%
    19:00 +12°C° 0.1 mm 1 mps 635 mmHg 89%
    20:00 +11°C° 0 mm 1 mps 635 mmHg 90%
    21:00 +11°C° 0 mm 1 mps 635 mmHg 91%
    22:00 +11°C° 0 mm 1 mps 635 mmHg 92%
    23:00 +11°C° 0 mm 1 mps 635 mmHg 93%

    Tomorrow, 18 September, Wednesday

    Time Temperature Precipitation Wind Pressure Humidity
    00:00 +10°C° 0 mm 1 mps 635 mmHg 94%
    01:00 +10°C° 0 mm 1 mps 635 mmHg 96%
    02:00 +10°C° 0 mm 1 mps 635 mmHg 95%
    03:00 +10°C° 0 mm 1 mps 635 mmHg 95%
    04:00 +10°C° 0 mm 1 mps 635 mmHg 95%
    05:00 +10°C° 0 mm 1 mps 636 mmHg 95%
    06:00 +10°C° 0 mm 1 mps 636 mmHg 94%
    07:00 +10°C° 0 mm 1 mps 636 mmHg 94%
    08:00 +11°C° 0 mm 1 mps 636 mmHg 88%
    09:00 +12°C° 0 mm 1 mps 637 mmHg 81%
    10:00 +13°C° 0 mm 1 mps 637 mmHg 75%
    11:00 +14°C° 0 mm 2 mps 637 mmHg 72%
    12:00 +15°C° 0 mm 2 mps 637 mmHg 69%
    13:00 +15°C° 0 mm 2 mps 637 mmHg 66%
    14:00 +15°C° 0 mm 2 mps 637 mmHg 69%
    15:00 +14°C° 0 mm 2 mps 637 mmHg 71%
    16:00 +14°C° 0 mm 2 mps 637 mmHg 74%
    17:00 +13°C° 0 mm 2 mps 636 mmHg 79%
    18:00 +10°C° 0 mm 2 mps 636 mmHg 84%
    19:00 +10°C° 0 mm 1 mps 636 mmHg 90%
    20:00 +9°C° 0 mm 1 mps 636 mmHg 91%
    21:00 +9°C° 0 mm 1 mps 636 mmHg 92%
    22:00 +7°C° 0 mm 0 mps 636 mmHg 94%
    23:00 +6°C° 0 mm 0 mps 636 mmHg 94%

    Day after tomorrow, 19 September, Thursday

    Time Temperature Precipitation Wind Pressure Humidity
    00:00 +6°C° 0 mm 0 mps 636 mmHg 94%
    01:00 +5°C° 0 mm 0 mps 636 mmHg 94%
    02:00 +5°C° 0 mm 0 mps 635 mmHg 94%
    03:00 +5°C° 0 mm 0 mps 635 mmHg 94%
    04:00 +4°C° 0 mm 0 mps 635 mmHg 94%
    05:00 +5°C° 0 mm 0 mps 635 mmHg 92%
    06:00 +6°C° 0 mm 0 mps 636 mmHg 89%
    07:00 +7°C° 0 mm 1 mps 636 mmHg 87%
    08:00 +9°C° 0 mm 1 mps 637 mmHg 76%
    09:00 +11°C° 0 mm 1 mps 638 mmHg 65%
    10:00 +13°C° 0 mm 2 mps 638 mmHg 54%
    11:00 +14°C° 0 mm 2 mps 639 mmHg 51%
    12:00 +15°C° 0 mm 2 mps 639 mmHg 47%
    13:00 +16°C° 0 mm 2 mps 639 mmHg 44%
    14:00 +15°C° 0 mm 2 mps 639 mmHg 46%
    15:00 +15°C° 0 mm 2 mps 639 mmHg 49%
    16:00 +15°C° 0 mm 2 mps 639 mmHg 52%
    17:00 +12°C° 0 mm 2 mps 638 mmHg 64%
    18:00 +9°C° 0 mm 1 mps 637 mmHg 76%
    19:00 +7°C° 0 mm 1 mps 637 mmHg 88%
    20:00 +6°C° 0 mm 1 mps 637 mmHg 88%
    21:00 +5°C° 0 mm 0 mps 637 mmHg 88%
    22:00 +4°C° 0 mm 0 mps 637 mmHg 89%
    23:00 +4°C° 0 mm 0 mps 637 mmHg 87%

    20 September, Friday

    Time Temperature Precipitation Wind Pressure Humidity
    00:00 +4°C° 0 mm 0 mps 637 mmHg 85%
    01:00 +4°C° 0 mm 0 mps 637 mmHg 83%
    02:00 +4°C° 0 mm 0 mps 637 mmHg 82%
    03:00 +4°C° 0 mm 0 mps 637 mmHg 80%
    04:00 +4°C° 0 mm 0 mps 637 mmHg 78%
    05:00 +5°C° 0 mm 0 mps 637 mmHg 76%
    06:00 +6°C° 0 mm 0 mps 638 mmHg 73%
    07:00 +7°C° 0 mm 0 mps 638 mmHg 71%
    08:00 +11°C° 0 mm 1 mps 639 mmHg 60%
    09:00 +13°C° 0 mm 1 mps 640 mmHg 49%
    10:00 +15°C° 0 mm 2 mps 641 mmHg 38%
    11:00 +16°C° 0 mm 2 mps 640 mmHg 37%
    12:00 +17°C° 0 mm 2 mps 640 mmHg 36%
    13:00 +18°C° 0 mm 2 mps 640 mmHg 35%
    14:00 +17°C° 0 mm 2 mps 640 mmHg 38%
    15:00 +17°C° 0 mm 2 mps 640 mmHg 41%
    16:00 +17°C° 0 mm 2 mps 639 mmHg 44%
    17:00 +14°C° 0 mm 1 mps 639 mmHg 55%
    18:00 +11°C° 0 mm 1 mps 638 mmHg 67%
    19:00 +8°C° 0 mm 0 mps 637 mmHg 78%
    20:00 +8°C° 0 mm 1 mps 637 mmHg 78%
    21:00 +8°C° 0 mm 1 mps 638 mmHg 78%
    22:00 +8°C° 0 mm 1 mps 638 mmHg 78%
    23:00 +8°C° 0 mm 1 mps 638 mmHg 80%

    21 September, Saturday

    Time Temperature Precipitation Wind Pressure Humidity
    00:00 +8°C° 0 mm 1 mps 638 mmHg 81%
    01:00 +8°C° 0 mm 1 mps 638 mmHg 83%
    02:00 +8°C° 0 mm 1 mps 637 mmHg 84%
    03:00 +7°C° 0 mm 2 mps 637 mmHg 84%
    04:00 +7°C° 0 mm 2 mps 637 mmHg 85%
    05:00 +8°C° 0 mm 2 mps 637 mmHg 83%
    06:00 +8°C° 0 mm 2 mps 637 mmHg 81%
    07:00 +9°C° 0 mm 2 mps 637 mmHg 79%
    08:00 +12°C° 0 mm 1 mps 638 mmHg 69%
    09:00 +15°C° 0 mm 1 mps 639 mmHg 58%
    10:00 +19°C° 0 mm 1 mps 640 mmHg 48%
    11:00 +20°C° 0 mm 1 mps 640 mmHg 45%
    12:00 +21°C° 0 mm 1 mps 640 mmHg 42%
    13:00 +22°C° 0 mm 1 mps 640 mmHg 38%
    14:00 +22°C° 0 mm 1 mps 640 mmHg 41%
    15:00 +21°C° 0 mm 1 mps 640 mmHg 43%
    16:00 +21°C° 0 mm 1 mps 640 mmHg 45%
    17:00 +18°C° 0 mm 1 mps 639 mmHg 58%
    18:00 +14°C° 0 mm 1 mps 638 mmHg 71%
    19:00 +11°C° 0 mm 1 mps 637 mmHg 83%
    20:00 +11°C° 0 mm 1 mps 637 mmHg 84%
    21:00 +11°C° 0 mm 1 mps 638 mmHg 84%
    22:00 +10°C° 0 mm 1 mps 638 mmHg 84%
    23:00 +9°C° 0 mm 2 mps 637 mmHg 84%

    22 September, Sunday

    Time Temperature Precipitation Wind Pressure Humidity
    00:00 +9°C° 0 mm 2 mps 637 mmHg 84%
    01:00 +9°C° 0 mm 2 mps 637 mmHg 83%
    02:00 +9°C° 0 mm 2 mps 637 mmHg 80%
    03:00 +9°C° 0 mm 2 mps 637 mmHg 77%
    04:00 +9°C° 0 mm 2 mps 637 mmHg 74%
    05:00 +9°C° 0 mm 2 mps 637 mmHg 70%
    06:00 +10°C° 0 mm 2 mps 637 mmHg 66%
    07:00 +10°C° 0 mm 2 mps 637 mmHg 62%
    08:00 +14°C° 0 mm 2 mps 638 mmHg 56%
    09:00 +16°C° 0 mm 2 mps 639 mmHg 49%
    10:00 +19°C° 0 mm 2 mps 640 mmHg 43%
    11:00 +20°C° 0 mm 2 mps 640 mmHg 43%
    12:00 +21°C° 0 mm 2 mps 640 mmHg 43%
    13:00 +23°C° 0 mm 2 mps 640 mmHg 43%
    14:00 +21°C° 0 mm 2 mps 639 mmHg 47%
    15:00 +21°C° 0 mm 2 mps 639 mmHg 51%
    16:00 +20°C° 0 mm 2 mps 639 mmHg 55%
    17:00 +18°C° 0.1 mm 2 mps 638 mmHg 66%
    18:00 +16°C° 0.1 mm 2 mps 638 mmHg 77%
    19:00 +13°C° 0.1 mm 2 mps 637 mmHg 88%
    20:00 +13°C° 0 mm 1 mps 638 mmHg 89%
    21:00 +13°C° 0 mm 1 mps 638 mmHg 89%
    22:00 +13°C° 0 mm 1 mps 638 mmHg 90%
    23:00 +12°C° 0 mm 1 mps 638 mmHg 91%
    Show more